Meteo pe oră la Abinsk

Astăzi, 29 Iulie, Joi

Timp Temperatura Precipitaţii Vânt Presiune Umiditate
00:00 +21°C° 0 mm 1 m/s 758 mmHg 67%
01:00 +21°C° 0 mm 1 m/s 758 mmHg 67%
02:00 +20°C° 0 mm 1 m/s 758 mmHg 67%
03:00 +20°C° 0 mm 1 m/s 758 mmHg 67%
04:00 +20°C° 0 mm 1 m/s 758 mmHg 65%
05:00 +20°C° 0 mm 1 m/s 758 mmHg 62%
06:00 +21°C° 0 mm 1 m/s 758 mmHg 60%
07:00 +23°C° 0 mm 1 m/s 757 mmHg 51%
08:00 +26°C° 0 mm 2 m/s 757 mmHg 42%
09:00 +29°C° 0 mm 2 m/s 757 mmHg 34%
10:00 +31°C° 0 mm 3 m/s 757 mmHg 30%
11:00 +33°C° 0 mm 3 m/s 757 mmHg 26%
12:00 +35°C° 0 mm 4 m/s 757 mmHg 22%
13:00 +36°C° 0 mm 3 m/s 756 mmHg 21%
14:00 +37°C° 0 mm 3 m/s 756 mmHg 19%
15:00 +37°C° 0 mm 3 m/s 755 mmHg 18%
16:00 +37°C° 0 mm 3 m/s 755 mmHg 20%
17:00 +36°C° 0 mm 3 m/s 755 mmHg 23%
18:00 +35°C° 0 mm 3 m/s 755 mmHg 25%
19:00 +31°C° 0 mm 3 m/s 755 mmHg 32%
20:00 +28°C° 0 mm 2 m/s 755 mmHg 39%
21:00 +25°C° 0 mm 2 m/s 755 mmHg 46%
22:00 +24°C° 0 mm 2 m/s 755 mmHg 48%
23:00 +24°C° 0 mm 1 m/s 756 mmHg 51%

Mâine, 30 Iulie, Vineri

Timp Temperatura Precipitaţii Vânt Presiune Umiditate
00:00 +23°C° 0 mm 1 m/s 756 mmHg 53%
01:00 +23°C° 0 mm 1 m/s 755 mmHg 54%
02:00 +22°C° 0 mm 1 m/s 755 mmHg 55%
03:00 +22°C° 0 mm 1 m/s 755 mmHg 56%
04:00 +22°C° 0 mm 1 m/s 755 mmHg 56%
05:00 +22°C° 0 mm 1 m/s 755 mmHg 56%
06:00 +22°C° 0 mm 1 m/s 755 mmHg 57%
07:00 +25°C° 0 mm 1 m/s 755 mmHg 49%
08:00 +28°C° 0 mm 1 m/s 755 mmHg 42%
09:00 +31°C° 0 mm 1 m/s 755 mmHg 35%
10:00 +33°C° 0 mm 1 m/s 755 mmHg 31%
11:00 +35°C° 0 mm 1 m/s 755 mmHg 28%
12:00 +36°C° 0 mm 1 m/s 755 mmHg 24%
13:00 +37°C° 0 mm 2 m/s 754 mmHg 25%
14:00 +37°C° 0 mm 2 m/s 754 mmHg 26%
15:00 +37°C° 0 mm 3 m/s 754 mmHg 27%
16:00 +36°C° 0 mm 3 m/s 753 mmHg 31%
17:00 +35°C° 0 mm 3 m/s 753 mmHg 34%
18:00 +34°C° 0 mm 3 m/s 753 mmHg 38%
19:00 +31°C° 0 mm 3 m/s 753 mmHg 46%
20:00 +28°C° 0 mm 2 m/s 754 mmHg 54%
21:00 +26°C° 0 mm 2 m/s 754 mmHg 62%
22:00 +25°C° 0 mm 2 m/s 754 mmHg 64%
23:00 +25°C° 0 mm 1 m/s 754 mmHg 65%

Poimâine, 31 Iulie, Sâmbătă

Timp Temperatura Precipitaţii Vânt Presiune Umiditate
00:00 +24°C° 0 mm 1 m/s 754 mmHg 66%
01:00 +24°C° 0 mm 1 m/s 754 mmHg 66%
02:00 +24°C° 0 mm 1 m/s 754 mmHg 66%
03:00 +24°C° 0 mm 1 m/s 754 mmHg 67%
04:00 +24°C° 0 mm 1 m/s 754 mmHg 66%
05:00 +24°C° 0 mm 1 m/s 754 mmHg 66%
06:00 +24°C° 0 mm 1 m/s 754 mmHg 66%
07:00 +27°C° 0 mm 1 m/s 754 mmHg 59%
08:00 +29°C° 0 mm 1 m/s 754 mmHg 51%
09:00 +32°C° 0 mm 1 m/s 754 mmHg 43%
10:00 +34°C° 0 mm 2 m/s 754 mmHg 40%
11:00 +35°C° 0 mm 2 m/s 754 mmHg 38%
12:00 +37°C° 0 mm 3 m/s 754 mmHg 35%
13:00 +37°C° 0 mm 3 m/s 754 mmHg 36%
14:00 +36°C° 0 mm 4 m/s 753 mmHg 37%
15:00 +36°C° 0 mm 5 m/s 753 mmHg 38%
16:00 +35°C° 0 mm 4 m/s 753 mmHg 40%
17:00 +35°C° 0 mm 4 m/s 754 mmHg 43%
18:00 +34°C° 0 mm 4 m/s 754 mmHg 45%
19:00 +31°C° 0 mm 3 m/s 754 mmHg 50%
20:00 +28°C° 0 mm 3 m/s 754 mmHg 55%
21:00 +26°C° 0 mm 2 m/s 755 mmHg 60%
22:00 +25°C° 0 mm 2 m/s 755 mmHg 64%
23:00 +25°C° 0 mm 1 m/s 755 mmHg 69%

1 August, Duminică

Timp Temperatura Precipitaţii Vânt Presiune Umiditate
00:00 +24°C° 0 mm 1 m/s 755 mmHg 74%
01:00 +23°C° 0 mm 1 m/s 755 mmHg 76%
02:00 +23°C° 0 mm 1 m/s 755 mmHg 77%
03:00 +23°C° 0 mm 1 m/s 755 mmHg 79%
04:00 +23°C° 0 mm 1 m/s 755 mmHg 79%
05:00 +23°C° 0 mm 1 m/s 755 mmHg 78%
06:00 +24°C° 0 mm 1 m/s 755 mmHg 77%
07:00 +26°C° 0 mm 1 m/s 755 mmHg 67%
08:00 +29°C° 0 mm 1 m/s 755 mmHg 56%
09:00 +32°C° 0 mm 1 m/s 755 mmHg 45%
10:00 +34°C° 0 mm 1 m/s 755 mmHg 40%
11:00 +36°C° 0 mm 1 m/s 754 mmHg 35%
12:00 +37°C° 0 mm 1 m/s 754 mmHg 30%
13:00 +38°C° 0 mm 2 m/s 754 mmHg 30%
14:00 +38°C° 0 mm 2 m/s 754 mmHg 30%
15:00 +38°C° 0 mm 3 m/s 754 mmHg 30%
16:00 +37°C° 0 mm 4 m/s 754 mmHg 34%
17:00 +36°C° 0 mm 4 m/s 754 mmHg 38%
18:00 +34°C° 0 mm 4 m/s 754 mmHg 41%
19:00 +32°C° 0 mm 4 m/s 754 mmHg 46%
20:00 +29°C° 0 mm 3 m/s 754 mmHg 51%
21:00 +27°C° 0 mm 2 m/s 755 mmHg 56%
22:00 +26°C° 0 mm 2 m/s 754 mmHg 60%
23:00 +25°C° 0 mm 2 m/s 754 mmHg 64%

2 August, Luni

Timp Temperatura Precipitaţii Vânt Presiune Umiditate
00:00 +24°C° 0 mm 1 m/s 754 mmHg 68%
01:00 +24°C° 0 mm 1 m/s 754 mmHg 70%
02:00 +24°C° 0 mm 1 m/s 754 mmHg 71%
03:00 +24°C° 0 mm 1 m/s 754 mmHg 72%
04:00 +24°C° 0 mm 1 m/s 754 mmHg 72%
05:00 +24°C° 0 mm 1 m/s 754 mmHg 72%
06:00 +24°C° 0 mm 2 m/s 754 mmHg 71%
07:00 +27°C° 0 mm 2 m/s 755 mmHg 62%
08:00 +30°C° 0 mm 2 m/s 755 mmHg 53%
09:00 +32°C° 0 mm 2 m/s 755 mmHg 44%
10:00 +35°C° 0 mm 2 m/s 754 mmHg 40%
11:00 +37°C° 0 mm 2 m/s 754 mmHg 36%
12:00 +38°C° 0 mm 2 m/s 754 mmHg 32%
13:00 +39°C° 0 mm 3 m/s 753 mmHg 32%
14:00 +39°C° 0 mm 3 m/s 753 mmHg 33%
15:00 +40°C° 0 mm 4 m/s 753 mmHg 34%
16:00 +38°C° 0 mm 4 m/s 753 mmHg 37%
17:00 +36°C° 0 mm 4 m/s 753 mmHg 40%
18:00 +35°C° 0 mm 4 m/s 753 mmHg 43%
19:00 +33°C° 0 mm 3 m/s 753 mmHg 50%
20:00 +30°C° 0 mm 2 m/s 753 mmHg 57%
21:00 +27°C° 0 mm 2 m/s 753 mmHg 63%
22:00 +27°C° 0 mm 1 m/s 753 mmHg 65%
23:00 +26°C° 0 mm 1 m/s 753 mmHg 66%

3 August, Marţi

Timp Temperatura Precipitaţii Vânt Presiune Umiditate
00:00 +26°C° 0 mm 1 m/s 753 mmHg 68%
01:00 +25°C° 0 mm 1 m/s 753 mmHg 68%
02:00 +25°C° 0 mm 1 m/s 754 mmHg 68%
03:00 +25°C° 0 mm 1 m/s 754 mmHg 68%
04:00 +25°C° 0 mm 1 m/s 754 mmHg 68%
05:00 +25°C° 0 mm 1 m/s 754 mmHg 67%
06:00 +25°C° 0 mm 1 m/s 754 mmHg 67%
07:00 +28°C° 0 mm 1 m/s 754 mmHg 57%
08:00 +31°C° 0 mm 1 m/s 754 mmHg 48%
09:00 +34°C° 0 mm 1 m/s 754 mmHg 38%
10:00 +36°C° 0 mm 2 m/s 754 mmHg 34%
11:00 +38°C° 0 mm 2 m/s 754 mmHg 30%
12:00 +40°C° 0 mm 2 m/s 754 mmHg 25%
13:00 +40°C° 0 mm 3 m/s 754 mmHg 25%
14:00 +41°C° 0 mm 4 m/s 754 mmHg 25%
15:00 +41°C° 0 mm 5 m/s 753 mmHg 25%
16:00 +40°C° 0 mm 5 m/s 754 mmHg 28%
17:00 +39°C° 0 mm 5 m/s 754 mmHg 31%
18:00 +36°C° 0 mm 5 m/s 754 mmHg 33%
19:00 +33°C° 0 mm 4 m/s 754 mmHg 41%
20:00 +30°C° 0 mm 3 m/s 755 mmHg 48%
21:00 +27°C° 0 mm 2 m/s 755 mmHg 56%
22:00 +26°C° 0 mm 2 m/s 755 mmHg 59%
23:00 +26°C° 0 mm 1 m/s 755 mmHg 62%
Arată mai mult

Formular de consimțământ

Meteoprog și furnizorii noștri de servicii pot stoca și accesa date personale, precum cookies, identificatori de dispozitiv sau alte tehnologii similare pe dispozitivul dumneavoastră și procesa astfel de date pentru a personaliza conținutul și reclamele, dar și pentru a oferi caracteristici de social media și pentru a analiza traficul.

  • Stocarea și/sau accesarea informațiilor pe dispozitivul dumneavoastră

    Cookies, identificatori de dispozitiv sau alte informații pot fi stocate sau accesate pe dispozitiv în scopurile indicate mai sus.

  • Reclame și conținut personalizat, evaluarea reclamelor și a conținutului, informații despre audiențe și dezvoltarea produselor

    Reclamele și conținutul pot fi personalizate pe baza unui profil. Pot fi adăugate date suplimentare pentru a personaliza mai bine reclamele și conținutul. Performanța reclamelor și conținutului poate fi măsurată. Pot fi obținute informații despre utilizatorii care au văzut reclamele și conținutul. Aceste date pot fi utilizate pentru a dezvolta sau îmbunătăți experiența utilizatorilor, sistemele și software-ul.

Dând clic pe ‘Sunt de acord’, permiteți utilizarea cookie-urilor menționate, a identificatorilor de dispozitiv, balizelor web sau altor tehnologii similare. Setările pot fi modificate din browser-ul dispozitivului dumneavoastră.

În anumite scopuri, interesele legitime pot prima asupra consimțământului. Puteți citi mai multe informații în acest sens în Politica privind Confidențialitatea Datelor și Cookie.